This demonstration page uses our WeatherBlox Daily Observations layout. Learn more.

Left ArrowRight Arrow

39.08367, -84.50855

Hourly Observations for February 14, 2016

Temp ( °F °C ) Dew Point ( °F °C ) Humidity (%) Winds ( mph kmh ) Pressure ( in mb ) Visibility ( mi km ) Precip ( " mm )
12:53 am 00:53 Clear 10 -12.2 7 -13.9 87 87 N N/A 30.55 1034 10 16 N/A
1:53 am 01:53 Clear 11 -11.7 7 -13.9 84 84 NE 3 6 30.55 1034 10 16 N/A
2:53 am 02:53 Clear 12 -11.1 5 -15 73 73 ENE 9 15 30.53 1034 10 16 N/A
3:53 am 03:53 Clear 12 -11.1 5 -15 73 73 NE 3 6 30.53 1034 10 16 N/A
4:53 am 04:53 Clear 13 -10.6 3 -16.1 64 64 N N/A 30.53 1034 10 16 N/A
5:53 am 05:53 Mostly Clear 13 -10.6 4 -15.6 67 67 ENE 3 6 30.54 1034 10 16 N/A
6:53 am 06:53 Cloudy 14 -10 5 -15 67 67 NE 6 9 30.53 1034 10 16 N/A
7:53 am 07:53 Cloudy 14 -10 4 -15.6 64 64 VRB 5 7 30.51 1033 10 16 N/A
8:53 am 08:53 Cloudy 15 -9.4 4 -15.6 61 61 ESE 7 11 30.51 1033 10 16 N/A
9:53 am 09:53 Mostly Cloudy 18 -7.8 5 -15 57 57 SSE 10 17 30.49 1032 10 16 N/A
10:53 am 10:53 Cloudy 19 -7.2 5 -15 54 54 SSE 8 13 30.45 1031 10 16 N/A
11:53 am 11:53 Mostly Cloudy 19 -7.2 4 -15.6 51 51 SSE 10 17 30.42 1030 10 16 N/A
12:53 pm 12:53 Cloudy 20 -6.7 5 -15 52 52 E 12 19 30.37 1028 10 16 N/A
1:53 pm 13:53 Cloudy with Light Snow 21 -6.1 9 -12.8 59 59 E 12 19 30.31 1026 6 10 N/A
2:31 pm 14:31 Cloudy with Light Snow 20 -6.7 12 -11.1 71 71 E 8 13 30.33 1027 2 3 N/A
2:53 pm 14:53 Cloudy with Light Snow 20 -6.7 13 -10.6 74 74 VRB 5 7 30.33 1027 2 3 N/A
3:17 pm 15:17 Cloudy with Light Snow 19 -7.2 15 -9.4 84 84 E 5 7 30.33 1027 1 1 N/A
3:51 pm 15:51 Cloudy with Heavy Snow 19 -7 16 -9 86 86 E 5 7 30.27 1025 0 0 0.02 0.51
3:53 pm 15:53 Cloudy with Snow 19 -7.2 16 -8.9 88 88 ESE 6 9 30.27 1025 1 1 0.03 0.76
3:58 pm 15:58 Cloudy with Heavy Snow 19 -7 16 -9 86 86 E 8 13 30.27 1025 0 0 N/A
4:12 pm 16:12 Cloudy with Snow 19 -7 16 -9 86 86 ESE 9 15 30.27 1025 1 1 N/A
4:53 pm 16:53 Cloudy with Heavy Snow 19 -7.2 16 -8.9 88 88 ESE 6 9 30.27 1025 0 0 0.04 1.02
5:53 pm 17:53 Cloudy with Snow 19 -7.2 16 -8.9 88 88 E 8 13 30.23 1024 1 1 0.05 1.27
6:53 pm 18:53 Mostly Cloudy with Light Snow 19 -7.2 16 -8.9 88 88 E 5 7 30.23 1024 1 2 0.03 0.76
7:10 pm 19:10 Cloudy with Light Snow 19 -7 16 -9 86 86 E 6 9 30.24 1024 3 4 N/A
7:21 pm 19:21 Cloudy with Light Snow 18 -7.8 15 -9.4 88 88 ENE 3 6 30.24 1024 3 5 N/A
7:51 pm 19:51 Cloudy 18 -8 16 -9 93 93 NE 5 7 30.24 1024 10 16 N/A
7:53 pm 19:53 Cloudy 18 -7.8 15 -9.4 88 88 NE 5 7 30.22 1023 10 16 N/A
8:53 pm 20:53 Cloudy 20 -6.7 15 -9.4 81 81 E 3 6 30.19 1022 10 16 N/A
9:53 pm 21:53 Cloudy 20 -6.7 16 -8.9 85 85 VRB 5 7 30.18 1022 10 16 N/A
10:53 pm 22:53 Cloudy 21 -6.1 16 -8.9 81 81 N N/A 30.16 1021 10 16 N/A
11:53 pm 23:53 Cloudy 21 -6.1 17 -8.3 85 85 N N/A 30.15 1021 10 16 N/A

Powered by AerisWeather